#timestamp,LO_Frequency,Hit,StdDev 
1625072415.1,286046999.0,N
1625072435.9,286047000.8,N
1625072455.7,286047002.7,N
1625072475.5,286047004.4,Y
1625072495.4,286047002.5,P
1625072515.2,286047001.9,N
1625072535.1,286047002.6,N
1625072536.0,286047002.6,N
1625072555.8,286047002.0,N
1625072575.6,286047000.0,N
1625072595.5,286047000.9,N
1625072615.3,286046998.1,N
1625072635.1,286046998.1,N
1625072655.9,286046998.5,N
1625072675.7,286047001.2,N
1625072695.6,286047000.8,N
1625072715.4,286046998.9,N
1625072735.2,286046997.0,N
1625072755.1,286046996.7,N
1625072756.0,286046996.7,N
1625072775.8,286046996.5,N
1625072795.6,286046999.4,N
1625072815.5,286046999.0,N
1625072835.3,286046999.0,N
1625072855.2,286046996.9,N
1625072875.9,286046997.0,N
1625072895.7,286046998.5,N
1625072915.6,286046999.3,N
1625072935.4,286046998.4,N
1625072955.2,286046999.0,N
1625072975.1,286046998.3,N
1625072976.0,286046998.3,N
1625072995.8,286046998.8,N
1625073015.7,286046997.3,N
1625073035.5,286046999.1,N
1625073055.3,286046999.4,N
1625073075.2,286046998.2,N
1625073095.0,286046996.5,N
1625073095.9,286046996.5,N
1625073115.7,286046999.0,N
1625073135.6,286046998.9,N
1625073155.4,286047001.0,N
1625073175.3,286046999.0,N
1625073195.1,286047000.5,N
1625073196.0,286047000.5,N
1625073215.8,286047002.2,N
1625073235.7,286047000.1,N
1625073255.5,286046999.9,N
1625073275.4,286047001.2,N
1625073295.2,286046998.5,N
1625073315.0,286046998.8,N
1625073315.9,286046998.8,N
1625073335.8,286046998.5,N
1625073355.6,286046999.0,N
1625073375.4,286047001.0,N
1625073395.3,286047001.0,N
1625073415.1,286046998.1,N
1625073435.9,286046999.4,N
1625073455.7,286046999.5,N
1625073475.5,286046998.8,N
1625073495.4,286046999.1,N
1625073515.2,286047001.2,N
1625073535.1,286047000.4,N
1625073536.0,286047000.4,N
1625073555.8,286047002.6,N
1625073575.7,286047000.1,N
1625073595.5,286047000.6,N
1625073615.3,286046999.7,N
1625073635.2,286047000.1,N
1625073655.0,286047000.6,N
1625073655.9,286047000.6,N
1625073675.7,286047001.0,N
1625073695.6,286047000.8,N
1625073715.4,286047000.0,N
1625073735.3,286047002.3,N
1625073755.1,286047002.6,N
1625073775.8,286047003.9,Y
1625073795.7,286047004.3,P
1625073815.5,286047001.4,N
1625073835.4,286047003.7,N
1625073855.2,286047003.6,N
1625073875.0,286047003.2,N
1625073875.9,286047003.2,N
1625073895.8,286047004.1,N
1625073915.6,286047003.5,N
1625073935.5,286047003.5,N
1625073955.3,286047003.5,N
1625073975.1,286047003.7,Y
1625073995.9,286047000.9,P
1625074015.7,286047000.5,N
1625074035.5,286047000.3,N
1625074055.4,286046998.1,N
1625074075.2,286046998.7,N
1625074095.1,286047000.9,N
1625074096.0,286047000.9,N
1625074115.8,286047000.8,N
1625074135.6,286047000.3,N
1625074155.5,286047000.7,N
1625074175.3,286046998.1,N
1625074195.1,286047000.7,N
1625074215.9,286046998.6,N
1625074235.7,286046996.5,N
1625074255.6,286046996.5,N
1625074275.4,286046998.7,N
1625074295.2,286046999.3,N
1625074315.1,286046998.3,N
1625074316.0,286046998.3,N
1625074335.8,286046998.1,N
1625074355.6,286046998.5,N
1625074375.5,286046999.2,N
1625074395.3,286046999.1,N
1625074415.2,286046998.8,N
1625074435.9,286046999.1,N
1625074455.7,286046999.6,N
1625074475.6,286046999.2,N
1625074495.4,286046999.4,N
1625074515.2,286046999.6,N
1625074535.1,286046999.4,N
1625074536.0,286046999.4,N
1625074555.8,286046999.3,N
1625074575.7,286046998.3,N
1625074595.5,286046998.8,N
1625074615.3,286046999.0,N
1625074635.2,286046999.3,N
1625074655.9,286046996.6,Y
1625074675.7,286046999.6,P
1625074695.6,286046996.6,P
1625074715.4,286046996.6,N
1625074735.3,286046996.6,N
1625074755.1,286046999.0,N
1625074756.0,286046999.0,N
1625074775.8,286046998.8,N
1625074795.7,286046999.1,N
1625074815.5,286046998.8,N
1625074835.3,286046998.2,N
1625074855.2,286046998.7,N
1625074875.0,286046998.7,N
1625074875.9,286046998.7,N
1625074895.8,286046999.6,N
1625074915.6,286046996.6,Y
1625074935.4,286047000.4,P
1625074955.3,286046999.7,N
1625074975.1,286047000.4,N
1625074995.8,286047001.1,N
1625075015.7,286047000.0,N
1625075035.5,286047000.2,N
1625075055.4,286047002.3,Y
1625075075.2,286047002.5,P
1625075095.0,286047001.4,N
1625075095.9,286047001.4,N
1625075115.8,286047002.0,N
1625075135.6,286047001.7,N
1625075155.4,286047002.7,Y
1625075175.3,286047001.1,P
1625075195.1,286047000.6,N
1625075215.9,286047000.6,N
1625075235.7,286047000.7,N
1625075255.5,286047000.8,N
1625075275.4,286047001.1,Y
1625075295.2,286046998.6,P
1625075315.0,286046998.2,N
1625075316.0,286046998.2,N
1625075335.8,286046999.6,N
1625075355.6,286047000.6,N
1625075375.5,286047001.2,N
1625075395.3,286046999.9,N
1625075415.1,286047001.2,N
1625075435.9,286047001.1,N
1625075455.7,286046996.9,N
1625075475.5,286046997.0,N
1625075495.4,286046998.9,N
1625075515.2,286046998.9,N
1625075535.1,286046997.0,N
1625075536.0,286046997.0,N
1625075555.8,286046999.3,N
1625075575.6,286046996.8,N
1625075595.5,286046996.9,N
1625075615.3,286046998.7,N
1625075635.2,286046999.0,N
1625075655.9,286046999.0,N
1625075675.7,286046998.5,N
1625075695.6,286046998.3,N
1625075715.4,286046998.7,N
1625075735.2,286047000.8,N
1625075755.1,286046998.7,N
1625075756.0,286046998.7,N
1625075775.8,286046999.1,N
1625075795.7,286046999.4,N
1625075815.5,286046999.0,N
1625075835.3,286046996.6,N
1625075855.2,286046999.1,N
1625075875.9,286046996.5,N
1625075895.7,286046999.1,N
1625075915.6,286046996.6,N
1625075935.4,286046996.7,N
1625075955.2,286046997.9,N
1625075975.1,286046994.9,Y
1625075976.0,286046994.9,P
1625075995.8,286046998.8,N
